DW1436 Weather Reports


time (UTC)temp
F
wind
direction
speed
knots
gust
knots
rain 1hr
in
rain 24hr
in
rain mn
in
humidity
%
barometer
mb
20260506073002 45 0 0.9 0.9 0.00 0.00 0.00 77 1016.2
20260506072503 45 0 0.9 0.9 0.00 0.00 0.00 79 1016.2
20260506072024 44 0 0.9 0.9 0.00 0.00 0.00 81 1016.2
20260506071503 43 0 0.9 0.9 0.00 0.00 0.00 84 1016.1
20260506071003 42 0 0.9 0.9 0.00 0.00 0.00 85 1016.2
20260506070502 41 0 0.9 0.9 0.00 0.00 0.00 86 1016.2
20260506062502 38 0 2.6 2.6 0.00 0.00 0.00 88 1016.0
20260506062003 38 0 0.0 0.0 0.00 0.00 0.00 88 1015.9
20260506061504 38 0 0.0 0.0 0.00 0.00 0.00 88 1015.9
20260506061003 38 0 0.0 0.0 0.00 0.00 0.00 88 1015.7
20260506060504 38 0 0.0 0.0 0.00 0.00 0.00 87 1015.7
20260506051024 37 0 0.0 0.0 0.00 0.00 0.00 85 1015.7
20260506050502 37 0 0.9 0.9 0.00 0.00 0.00 85 1015.7
20260506045002 37 0 2.6 2.6 0.00 0.00 0.00 85 1015.8
20260506044504 37 0 2.6 2.6 0.00 0.00 0.00 86 1015.8
20260506044023 37 0 2.6 2.6 0.00 0.00 0.00 86 1015.7
20260506043502 37 0 0.9 0.9 0.00 0.00 0.00 86 1015.7
20260506043004 37 0 0.9 0.9 0.00 0.00 0.00 86 1015.7
20260506042503 37 0 0.9 0.9 0.00 0.00 0.00 86 1015.8
20260506042003 37 0 0.9 0.9 0.00 0.00 0.00 86 1015.8
20260506041503 37 0 0.9 0.9 0.00 0.00 0.00 84 1015.8
20260506041004 37 0 0.9 0.9 0.00 0.00 0.00 84 1015.8
20260506040502 37 0 0.0 0.0 0.00 0.00 0.00 84 1015.8
20260506040004 37 0 0.9 0.9 0.00 0.00 0.00 84 1015.8
20260506035523 37 0 0.9 0.9 0.00 0.00 0.00 84 1015.8
20260506035002 37 0 0.9 0.9 0.00 0.00 0.00 84 1015.8
20260506034503 37 0 0.9 0.9 0.00 0.00 0.00 84 1015.9
20260506034002 37 0 0.0 0.0 0.00 0.00 0.00 84 1015.9
20260506033503 37 0 0.0 0.0 0.00 0.00 0.00 83 1015.9
20260506033004 37 0 0.0 0.0 0.00 0.00 0.00 83 1015.9
20260506032502 37 0 0.0 0.0 0.00 0.00 0.00 83 1015.9
20260506032004 38 0 0.0 0.0 0.00 0.00 0.00 83 1016.0
20260506031524 38 0 0.0 0.0 0.00 0.00 0.00 82 1015.9
20260506031026 38 0 0.0 0.0 0.00 0.00 0.00 82 1015.9
20260506030504 38 0 0.9 0.9 0.00 0.00 0.00 82 1016.0
20260506030002 38 0 0.9 0.9 0.00 0.00 0.00 82 1015.9
20260506025504 38 0 0.9 0.9 0.00 0.00 0.00 82 1015.9
20260506025004 38 0 0.9 0.9 0.00 0.00 0.00 82 1015.9
20260506024503 38 0 0.9 0.9 0.00 0.00 0.00 82 1015.8
20260506024003 39 0 2.6 2.6 0.00 0.00 0.00 82 1015.8
20260506023503 38 0 2.6 2.6 0.00 0.00 0.00 82 1015.8
20260506023024 39 0 2.6 2.6 0.00 0.00 0.00 82 1015.9
20260506022503 39 0 0.9 0.9 0.00 0.00 0.00 82 1015.9
20260506022004 39 0 0.9 0.9 0.00 0.00 0.00 82 1015.9
20260506021503 39 0 0.9 0.9 0.00 0.00 0.00 81 1015.9
20260506021002 39 0 0.9 0.9 0.00 0.00 0.00 81 1016.0
20260506020504 39 0 3.5 3.5 0.00 0.00 0.00 81 1016.0
20260506020002 39 0 3.5 3.5 0.00 0.00 0.00 81 1016.0
20260506015502 39 33 0.0 3.5 0.00 0.00 0.00 82 1016.0
20260506015003 39 32 0.0 3.5 0.00 0.00 0.00 82 1016.0
20260506014504 39 18 0.9 2.6 0.00 0.00 0.00 82 1016.1
20260506014002 39 8 0.9 2.6 0.00 0.00 0.00 82 1016.1
20260506013502 39 0 0.0 2.6 0.00 0.00 0.00 82 1015.9
20260506013025 39 0 2.6 2.6 0.00 0.00 0.00 82 1016.0
20260506012524 39 0 2.6 2.6 0.00 0.00 0.00 82 1015.9
20260506012004 39 0 0.9 0.9 0.00 0.00 0.00 82 1016.0
20260506011502 39 0 0.9 0.9 0.00 0.00 0.00 82 1016.0
20260506011004 40 0 0.9 0.9 0.00 0.00 0.00 82 1016.0
20260506010503 40 0 0.9 0.9 0.00 0.00 0.00 82 1016.0
20260506010002 40 0 0.9 0.9 0.00 0.00 0.00 82 1016.1
20260506005502 40 0 2.6 2.6 0.00 0.00 0.00 82 1016.0
20260506005004 40 0 2.6 2.6 0.00 0.00 0.00 82 1016.0
20260506004504 40 0 2.6 2.6 0.00 0.00 0.00 82 1016.1
20260506004003 40 0 2.6 2.6 0.00 0.00 0.00 82 1016.1
20260506003503 40 0 2.6 2.6 0.00 0.00 0.00 82 1016.1
20260506003023 40 0 2.6 2.6 0.00 0.00 0.00 81 1016.1
20260506002504 41 0 2.6 2.6 0.00 0.00 0.00 81 1016.1
20260506002002 41 0 0.0 2.6 0.00 0.00 0.00 81 1016.2
20260506001504 41 0 0.0 2.6 0.00 0.00 0.00 81 1016.2
20260506001024 41 12 0.0 4.3 0.00 0.00 0.00 81 1016.2
20260506000502 41 14 0.0 4.3 0.00 0.00 0.00 81 1016.2
20260506000004 42 17 0.9 2.6 0.00 0.00 0.00 80 1016.2
20260505235503 42 15 0.9 3.5 0.00 0.00 0.00 80 1016.3
20260505235002 42 8 0.9 4.3 0.00 0.00 0.00 80 1016.3
20260505234504 42 355 0.9 4.3 0.00 0.00 0.00 80 1016.4
20260505234004 42 351 0.9 3.5 0.00 0.00 0.00 79 1016.3
20260505233503 42 358 0.0 3.5 0.00 0.00 0.00 79 1016.3
20260505233002 43 0 2.6 2.6 0.00 0.00 0.00 78 1016.4
20260505232502 43 0 2.6 2.6 0.00 0.00 0.00 78 1016.4
20260505232003 43 0 0.9 0.9 0.00 0.00 0.00 78 1016.4
20260505231502 43 0 0.9 0.9 0.00 0.00 0.00 78 1016.4
20260505231004 43 0 0.9 0.9 0.00 0.00 0.00 78 1016.4
20260505230503 44 0 0.9 0.9 0.00 0.00 0.00 77 1016.4
20260505230025 44 0 0.9 0.9 0.00 0.00 0.00 77 1016.4
20260505225525 44 0 2.6 2.6 0.00 0.00 0.00 77 1016.5
20260505225003 44 0 3.5 3.5 0.00 0.00 0.00 77 1016.5
20260505224524 44 0 3.5 3.5 0.00 0.00 0.00 77 1016.4
20260505224004 44 0 3.5 3.5 0.00 0.00 0.00 77 1016.5
20260505223524 44 0 0.0 3.5 0.00 0.00 0.00 76 1016.5
20260505223002 44 0 3.5 3.5 0.00 0.00 0.00 76 1016.4
20260505222524 44 9 0.0 2.6 0.00 0.00 0.00 75 1016.5
20260505222004 44 9 0.0 3.5 0.00 0.00 0.00 75 1016.5
20260505221502 44 27 0.9 6.1 0.00 0.00 0.00 75 1016.5
20260505221003 45 37 0.9 6.1 0.00 0.00 0.00 74 1016.4
20260505220502 45 37 0.9 4.3 0.00 0.00 0.00 75 1016.5
20260505220003 45 36 0.9 3.5 0.00 0.00 0.00 74 1016.5
20260505215505 45 42 0.9 6.1 0.00 0.00 0.00 74 1016.5
20260505215004 45 47 0.9 6.1 0.00 0.00 0.00 74 1016.4
20260505214504 45 41 0.9 6.1 0.00 0.00 0.00 74 1016.5
20260505214003 45 30 0.9 6.1 0.00 0.00 0.00 73 1016.5
20260505213503 46 38 0.9 6.1 0.00 0.00 0.00 73 1016.5
20260505213025 46 43 0.9 6.1 0.00 0.00 0.00 73 1016.5
20260505212504 46 61 0.9 4.3 0.00 0.00 0.00 73 1016.5
20260505212003 46 58 0.9 4.3 0.00 0.00 0.00 73 1016.6
20260505211524 46 46 1.7 4.3 0.00 0.00 0.00 73 1016.5
20260505211003 46 65 1.7 6.1 0.00 0.00 0.00 73 1016.5
20260505210503 46 76 1.7 8.7 0.00 0.00 0.00 73 1016.5
20260505210004 46 75 2.6 8.7 0.00 0.00 0.00 71 1016.7
20260505205503 46 82 2.6 8.7 0.00 0.00 0.00 73 1016.6
20260505205003 46 81 2.6 8.7 0.00 0.00 0.00 74 1016.6
20260505204504 46 92 1.7 7.0 0.00 0.00 0.00 75 1016.7
20260505204002 46 110 1.7 7.0 0.00 0.00 0.00 75 1016.6
20260505203525 46 77 1.7 7.0 0.00 0.00 0.00 77 1016.5
20260505203004 46 68 1.7 7.0 0.00 0.00 0.00 77 1016.5
20260505202503 46 88 1.7 8.7 0.00 0.00 0.00 77 1016.5
20260505202023 47 88 1.7 8.7 0.00 0.00 0.00 77 1016.5
20260505201503 47 83 0.9 7.0 0.00 0.00 0.00 77 1016.5
20260505201003 47 84 0.9 7.0 0.00 0.00 0.00 78 1016.5
20260505200503 47 82 1.7 7.0 0.00 0.00 0.00 77 1016.5
20260505200004 47 69 1.7 4.3 0.00 0.00 0.00 78 1016.5
20260505195504 47 72 2.6 9.6 0.00 0.00 0.00 77 1016.5
20260505195004 47 83 2.6 9.6 0.00 0.00 0.00 76 1016.5
20260505194525 47 90 2.6 10.4 0.00 0.00 0.00 76 1016.5
20260505194003 47 85 2.6 10.4 0.00 0.00 0.00 77 1016.5
20260505193503 47 83 3.5 10.4 0.00 0.00 0.00 77 1016.4
20260505193025 47 75 2.6 10.4 0.00 0.00 0.00 77 1016.4
20260505192503 47 56 2.6 10.4 0.00 0.00 0.00 76 1016.3
20260505192004 47 55 2.6 10.4 0.00 0.00 0.00 75 1016.3
20260505191503 47 49 3.5 10.4 0.00 0.00 0.00 74 1016.3
20260505191004 47 57 2.6 10.4 0.00 0.00 0.00 74 1016.2
20260505190503 47 57 2.6 10.4 0.00 0.00 0.00 74 1016.1
20260505190003 47 69 3.5 8.7 0.00 0.00 0.00 75 1016.1
20260505185525 47 91 3.5 10.4 0.00 0.00 0.00 76 1016.1
20260505185002 47 87 2.6 10.4 0.00 0.00 0.00 75 1016.1
20260505184504 48 60 2.6 10.4 0.00 0.00 0.00 75 1016.1
20260505184004 48 35 3.5 9.6 0.00 0.00 0.00 76 1016.1
20260505183504 48 61 3.5 9.6 0.00 0.00 0.00 76 1016.0
20260505183004 48 51 3.5 13.9 0.00 0.00 0.00 75 1016.1
20260505182525 48 29 2.6 13.9 0.00 0.00 0.00 75 1016.1
20260505182003 48 43 2.6 7.0 0.00 0.00 0.00 76 1016.0
20260505181503 48 50 2.6 7.0 0.00 0.00 0.00 76 1015.9
20260505181002 48 53 3.5 8.7 0.00 0.00 0.00 76 1015.9
20260505180503 48 70 3.5 8.7 0.00 0.00 0.00 76 1015.9
20260505180004 48 60 3.5 10.4 0.00 0.00 0.00 76 1016.0
20260505175503 48 65 3.5 10.4 0.00 0.00 0.00 76 1016.0
20260505175002 48 86 3.5 15.6 0.00 0.00 0.00 75 1015.9
20260505174504 48 78 3.5 15.6 0.00 0.00 0.00 74 1015.9
20260505174025 48 60 2.6 15.6 0.00 0.00 0.00 75 1016.0
20260505173525 49 70 3.5 13.0 0.00 0.00 0.00 74 1016.0
20260505173004 48 80 3.5 13.0 0.00 0.00 0.00 74 1016.0
20260505172503 48 80 3.5 13.0 0.00 0.00 0.00 73 1016.0
20260505172004 48 85 3.5 10.4 0.00 0.00 0.00 72 1016.1
20260505171503 49 82 3.5 10.4 0.00 0.00 0.00 73 1016.0
20260505171024 49 73 2.6 9.6 0.00 0.00 0.00 73 1016.0
20260505170504 49 61 2.6 9.6 0.00 0.00 0.00 72 1016.0
20260505170004 49 79 3.5 10.4 0.00 0.00 0.00 72 1016.0
20260505165503 49 85 2.6 13.9 0.00 0.00 0.00 73 1016.0
20260505165003 49 74 2.6 13.9 0.00 0.00 0.00 73 1016.0
20260505164503 49 81 2.6 15.6 0.00 0.00 0.00 75 1015.9
20260505164004 49 78 3.5 15.6 0.00 0.00 0.00 74 1016.0
20260505163504 49 82 3.5 15.6 0.00 0.00 0.00 74 1016.0
20260505163003 49 85 2.6 15.6 0.00 0.00 0.00 74 1016.0
20260505162503 49 84 2.6 13.9 0.00 0.00 0.00 74 1015.9
20260505162004 49 70 3.5 13.0 0.00 0.00 0.00 72 1016.0
20260505161504 49 63 3.5 13.0 0.00 0.00 0.00 72 1016.0
20260505161004 49 79 3.5 13.0 0.00 0.00 0.00 72 1015.9
20260505160502 50 95 3.5 13.0 0.00 0.00 0.00 73 1015.9
20260505153004 50 51 3.5 13.0 0.00 0.00 0.00 75 1015.4
20260505152504 50 44 3.5 13.0 0.00 0.00 0.00 76 1015.5
20260505152004 50 36 4.3 13.0 0.00 0.00 0.00 76 1015.5
20260505151504 50 62 4.3 10.4 0.00 0.00 0.00 75 1015.4
20260505151025 50 85 4.3 10.4 0.00 0.00 0.00 75 1015.4
20260505150503 50 77 4.3 12.2 0.00 0.00 0.00 74 1015.5
20260505140525 52 65 3.5 10.4 0.00 0.00 0.00 66 1015.2
20260505125025 52 79 2.6 10.4 0.00 0.00 0.00 75 1015.0
20260505124504 51 85 2.6 10.4 0.00 0.00 0.00 74 1015.0
20260505124025 51 69 2.6 10.4 0.00 0.00 0.00 74 1014.9
20260505123503 51 65 2.6 9.6 0.00 0.00 0.00 75 1014.9
20260505123004 51 79 2.6 8.7 0.00 0.00 0.00 75 1014.9
20260505122504 51 77 2.6 8.7 0.00 0.00 0.00 74 1015.0
20260505122004 51 64 2.6 7.0 0.00 0.00 0.00 75 1014.9
20260505121504 51 54 2.6 7.0 0.00 0.00 0.00 75 1014.9
20260505121004 51 62 1.7 9.6 0.00 0.00 0.00 75 1014.8
20260505120504 51 75 1.7 9.6 0.00 0.00 0.00 77 1014.8
20260505120003 51 63 2.6 9.6 0.00 0.00 0.00 77 1014.9
20260505115504 51 76 2.6 9.6 0.00 0.00 0.00 78 1014.8
20260505115004 51 77 3.5 9.6 0.00 0.00 0.00 76 1014.8
20260505114504 51 78 3.5 12.2 0.00 0.00 0.00 74 1014.8
20260505114003 51 86 3.5 12.2 0.00 0.00 0.00 73 1014.8
20260505113503 51 77 3.5 10.4 0.00 0.00 0.00 73 1014.7
20260505113004 51 68 4.3 10.4 0.00 0.00 0.00 75 1014.7
20260505112504 51 65 4.3 10.4 0.00 0.00 0.00 75 1014.6
20260505112004 52 65 4.3 15.6 0.00 0.00 0.00 76 1014.7
20260505111504 52 84 3.5 15.6 0.00 0.00 0.00 78 1014.6
20260505111004 52 96 2.6 13.0 0.00 0.00 0.00 79 1014.6
20260505110503 52 67 2.6 10.4 0.00 0.00 0.00 79 1014.6
20260505102003 53 58 1.7 10.4 0.00 0.00 0.00 73 1014.3
20260505101504 53 62 1.7 9.6 0.00 0.00 0.00 74 1014.3
20260505101003 53 74 1.7 9.6 0.00 0.00 0.00 73 1014.3
20260505100525 53 89 0.9 6.1 0.00 0.00 0.00 73 1014.3
20260505100003 53 84 0.9 6.1 0.00 0.00 0.00 72 1014.2
20260505095504 53 70 0.9 6.1 0.00 0.00 0.00 72 1014.2
20260505095003 54 83 0.0 7.0 0.00 0.00 0.00 71 1014.2
20260505094525 54 71 0.9 7.0 0.00 0.00 0.00 70 1014.2
20260505094004 54 39 0.9 4.3 0.00 0.00 0.00 71 1014.2
20260505093525 54 37 0.9 4.3 0.00 0.00 0.00 70 1014.2
20260505093003 54 35 0.9 4.3 0.00 0.00 0.00 70 1014.2
20260505092504 54 52 0.9 4.3 0.00 0.00 0.00 71 1014.2
20260505092004 54 60 0.9 4.3 0.00 0.00 0.00 70 1014.2
20260505091504 54 19 0.9 7.0 0.00 0.00 0.00 71 1014.2
20260505091004 54 12 0.9 7.0 0.00 0.00 0.00 71 1014.2
20260505090503 54 20 0.9 7.0 0.00 0.00 0.00 71 1014.1
20260505090005 54 21 0.9 7.0 0.00 0.00 0.00 70 1014.1
20260505085503 54 43 1.7 7.0 0.00 0.00 0.00 70 1014.1
20260505085003 54 32 1.7 7.0 0.00 0.00 0.00 72 1014.1
20260505084504 54 19 2.6 6.1 0.00 0.00 0.00 70 1014.1
20260505084004 54 26 2.6 6.1 0.00 0.00 0.00 70 1014.2
20260505083504 54 27 2.6 6.1 0.00 0.00 0.00 69 1014.1
20260505083005 54 30 1.7 6.1 0.00 0.00 0.00 70 1014.1
20260505082504 55 27 0.9 6.1 0.00 0.00 0.00 70 1014.2
20260505082004 54 0 0.0 6.1 0.00 0.00 0.00 73 1014.1
20260505081503 53 0 6.1 6.1 0.00 0.00 0.00 73 1014.1
20260505081004 53 0 2.6 2.6 0.00 0.00 0.00 73 1014.2
20260505080524 53 0 2.6 2.6 0.00 0.00 0.00 74 1014.2
20260505080004 52 0 0.9 0.9 0.00 0.00 0.00 75 1014.2
20260505075503 52 0 0.9 0.9 0.00 0.00 0.00 75 1014.2
20260505075003 51 0 0.9 0.9 0.00 0.00 0.00 75 1014.2
20260505074503 51 0 0.9 0.9 0.00 0.00 0.00 75 1014.2
20260505074004 51 0 0.0 0.0 0.00 0.00 0.00 75 1014.2
20260505073525 51 0 0.0 0.0 0.00 0.00 0.00 76 1014.2